View from above orbital plane
|
View from above satellite
|
Ground track
|
The orbit data is extracted from the following two-line orbital elements,
1 14147U 83061A 13143.80333387 .00003372 00000-0 23909-3 0 7159
2 14147 082.5103 050.0385 0013791 342.5917 017.4834 15.04407941380914
| Epoch (UTC): | 23 May 2013 19:16:48 |
| Eccentricity: | 0.0013791 |
| inclination: | 82.5103° |
| perigee height: | 544 km |
| apogee height: | 563 km |
| right ascension of ascending node: | 50.0385° |
| argument of perigee: | 342.5917° |
| revolutions per day: | 15.04407941 |
| mean anomaly at epoch: | 17.4834° |
| orbit number at epoch: | 38091 |
The dashed part of the orbit path shows where the satellite is in the earth's shadow,
|
|